TimeCDT,TemperatureF,Dew PointF,Humidity,Sea Level PressureIn,VisibilityMPH,Wind Direction,Wind SpeedMPH,Gust SpeedMPH,PrecipitationIn,Events,Conditions,WindDirDegrees,DateUTC
12:15 AM,57.2,50.0,77,29.79,10.0,SE,8.1,-,N/A,,Scattered Clouds,140,2012-03-31 05:15:00
12:35 AM,57.2,50.0,77,29.79,10.0,SE,8.1,-,N/A,,Scattered Clouds,140,2012-03-31 05:35:00
12:55 AM,57.2,50.0,77,29.79,10.0,SSE,9.2,-,N/A,,Scattered Clouds,150,2012-03-31 05:55:00
1:15 AM,57.2,51.8,82,29.79,10.0,SSE,9.2,-,N/A,,Clear,150,2012-03-31 06:15:00
1:35 AM,57.2,51.8,82,29.79,10.0,SSE,9.2,-,N/A,,Clear,150,2012-03-31 06:35:00
1:55 AM,57.2,51.8,82,29.79,10.0,SE,9.2,-,N/A,,Clear,140,2012-03-31 06:55:00
2:15 AM,57.2,51.8,82,29.78,10.0,SSE,10.4,-,N/A,,Clear,150,2012-03-31 07:15:00
2:35 AM,57.2,51.8,82,29.78,10.0,SSE,11.5,-,N/A,,Scattered Clouds,160,2012-03-31 07:35:00
2:55 AM,57.2,51.8,82,29.78,10.0,SSE,8.1,-,N/A,,Scattered Clouds,160,2012-03-31 07:55:00
3:15 AM,57.2,51.8,82,29.77,10.0,SSE,6.9,-,N/A,,Clear,160,2012-03-31 08:15:00
3:35 AM,57.2,51.8,82,29.77,10.0,SSE,9.2,-,N/A,,Scattered Clouds,160,2012-03-31 08:35:00
3:55 AM,57.2,51.8,82,29.78,10.0,SSE,10.4,-,N/A,,Scattered Clouds,160,2012-03-31 08:55:00
4:15 AM,57.2,51.8,82,29.78,10.0,SSE,9.2,-,N/A,,Scattered Clouds,150,2012-03-31 09:15:00
4:35 AM,57.2,51.8,82,29.78,10.0,SSE,10.4,-,N/A,,Scattered Clouds,150,2012-03-31 09:35:00
4:55 AM,57.2,51.8,82,29.78,10.0,SSE,11.5,-,N/A,,Scattered Clouds,160,2012-03-31 09:55:00
5:15 AM,55.4,51.8,88,29.77,10.0,SSE,10.4,-,N/A,,Clear,160,2012-03-31 10:15:00
5:35 AM,57.2,51.8,82,29.77,10.0,South,8.1,-,N/A,,Scattered Clouds,170,2012-03-31 10:35:00
5:55 AM,57.2,51.8,82,29.77,10.0,SSE,9.2,-,N/A,,Scattered Clouds,160,2012-03-31 10:55:00
6:15 AM,57.2,51.8,82,29.78,10.0,SSE,9.2,-,N/A,,Scattered Clouds,160,2012-03-31 11:15:00
6:35 AM,57.2,51.8,82,29.78,10.0,SE,5.8,-,N/A,,Scattered Clouds,130,2012-03-31 11:35:00
6:55 AM,57.2,51.8,82,29.78,10.0,SSE,4.6,-,N/A,,Scattered Clouds,150,2012-03-31 11:55:00
7:15 AM,55.4,51.8,88,29.80,10.0,Calm,Calm,-,N/A,,Clear,0,2012-03-31 12:15:00
7:35 AM,55.4,51.8,88,29.80,10.0,Calm,Calm,-,N/A,,Clear,0,2012-03-31 12:35:00
7:55 AM,55.4,51.8,88,29.80,10.0,Calm,Calm,-,N/A,,Clear,0,2012-03-31 12:55:00
8:15 AM,57.2,51.8,82,29.80,10.0,South,9.2,-,N/A,,Clear,170,2012-03-31 13:15:00
8:35 AM,57.2,53.6,88,29.80,10.0,South,9.2,-,N/A,,Clear,170,2012-03-31 13:35:00
8:55 AM,57.2,53.6,88,29.81,10.0,South,9.2,-,N/A,,Clear,170,2012-03-31 13:55:00
9:15 AM,59.0,53.6,82,29.80,10.0,South,8.1,-,N/A,,Clear,180,2012-03-31 14:15:00
9:35 AM,59.0,53.6,82,29.80,10.0,South,9.2,-,N/A,,Clear,180,2012-03-31 14:35:00
9:55 AM,60.8,53.6,77,29.80,10.0,South,9.2,-,N/A,,Clear,180,2012-03-31 14:55:00
10:15 AM,60.8,55.4,82,29.80,10.0,South,10.4,-,N/A,,Clear,190,2012-03-31 15:15:00
10:35 AM,62.6,55.4,77,29.79,10.0,South,9.2,-,N/A,,Clear,180,2012-03-31 15:35:00
10:55 AM,64.4,55.4,73,29.79,10.0,South,9.2,-,N/A,,Clear,190,2012-03-31 15:55:00
11:15 AM,68.0,55.4,64,29.78,10.0,South,6.9,-,N/A,,Clear,180,2012-03-31 16:15:00
11:35 AM,71.6,57.2,60,29.78,10.0,SW,8.1,-,N/A,,Clear,220,2012-03-31 16:35:00
11:55 AM,73.4,57.2,57,29.77,10.0,WSW,9.2,-,N/A,,Clear,240,2012-03-31 16:55:00
12:15 PM,73.4,57.2,57,29.77,10.0,WSW,8.1,-,N/A,,Clear,240,2012-03-31 17:15:00
12:35 PM,75.2,57.2,53,29.75,10.0,SSW,11.5,-,N/A,,Scattered Clouds,210,2012-03-31 17:35:00
12:55 PM,78.8,59.0,51,29.74,10.0,SW,11.5,-,N/A,,Clear,230,2012-03-31 17:55:00
1:15 PM,80.6,57.2,45,29.73,10.0,SW,16.1,-,N/A,,Clear,220,2012-03-31 18:15:00
1:35 PM,82.4,57.2,42,29.72,10.0,WSW,13.8,19.6,N/A,,Scattered Clouds,240,2012-03-31 18:35:00
1:55 PM,82.4,55.4,39,29.71,10.0,WSW,18.4,24.2,N/A,,Clear,240,2012-03-31 18:55:00
2:15 PM,84.2,51.8,33,29.70,10.0,SW,19.6,-,N/A,,Clear,230,2012-03-31 19:15:00
2:55 PM,86.0,46.4,25,29.69,10.0,WSW,23.0,32.2,N/A,,Clear,240,2012-03-31 19:55:00
3:15 PM,86.0,46.4,25,29.68,10.0,SW,20.7,26.5,N/A,,Clear,230,2012-03-31 20:15:00
3:35 PM,86.0,42.8,22,29.67,10.0,SW,20.7,-,N/A,,Clear,230,2012-03-31 20:35:00
3:55 PM,87.8,41.0,19,29.67,10.0,WSW,21.9,27.6,N/A,,Clear,240,2012-03-31 20:55:00
4:15 PM,87.8,39.2,18,29.67,10.0,WSW,23.0,29.9,N/A,,Clear,240,2012-03-31 21:15:00
4:35 PM,87.8,39.2,18,29.66,10.0,WSW,19.6,28.8,N/A,,Clear,240,2012-03-31 21:35:00
4:55 PM,86.0,37.4,18,29.66,10.0,WSW,23.0,27.6,N/A,,Clear,240,2012-03-31 21:55:00
5:15 PM,86.0,37.4,18,29.66,10.0,SW,20.7,26.5,N/A,,Scattered Clouds,230,2012-03-31 22:15:00
5:35 PM,84.2,37.4,19,29.65,10.0,SW,17.3,25.3,N/A,,Clear,230,2012-03-31 22:35:00
5:55 PM,84.2,37.4,19,29.65,10.0,SW,18.4,23.0,N/A,,Clear,230,2012-03-31 22:55:00
6:15 PM,84.2,37.4,19,29.65,10.0,SW,20.7,26.5,N/A,,Clear,220,2012-03-31 23:15:00
6:35 PM,82.4,42.8,25,29.64,10.0,SW,13.8,24.2,N/A,,Clear,220,2012-03-31 23:35:00
7:15 PM,78.8,44.6,30,29.65,10.0,SW,15.0,-,N/A,,Clear,220,2012-04-01 00:15:00
7:35 PM,75.2,44.6,34,29.65,10.0,SW,11.5,-,N/A,,Clear,220,2012-04-01 00:35:00
7:55 PM,75.2,46.4,36,29.65,10.0,SSW,12.7,-,N/A,,Clear,210,2012-04-01 00:55:00
8:15 PM,73.4,46.4,38,29.65,10.0,SSW,11.5,-,N/A,,Clear,200,2012-04-01 01:15:00
8:35 PM,73.4,48.2,41,29.66,10.0,SSW,11.5,-,N/A,,Scattered Clouds,210,2012-04-01 01:35:00
9:15 PM,71.6,48.2,43,29.66,10.0,SSW,10.4,-,N/A,,Clear,210,2012-04-01 02:15:00
9:35 PM,71.6,48.2,43,29.67,10.0,SSW,11.5,-,N/A,,Scattered Clouds,210,2012-04-01 02:35:00
9:55 PM,69.8,50.0,49,29.67,10.0,SW,9.2,-,N/A,,Clear,220,2012-04-01 02:55:00
10:15 PM,68.0,51.8,56,29.67,10.0,SW,8.1,-,N/A,,Clear,230,2012-04-01 03:15:00
10:35 PM,66.2,51.8,60,29.67,10.0,SW,6.9,-,N/A,,Scattered Clouds,230,2012-04-01 03:35:00
11:15 PM,64.4,51.8,64,29.67,10.0,SW,6.9,-,N/A,,Scattered Clouds,220,2012-04-01 04:15:00
11:35 PM,64.4,51.8,64,29.67,10.0,SW,6.9,-,N/A,,Scattered Clouds,220,2012-04-01 04:35:00
11:55 PM,64.4,51.8,64,29.67,10.0,SW,6.9,-,N/A,,Scattered Clouds,220,2012-04-01 04:55:00